Content
SEND FEEDBACK

Daily
Averages
Monthly
Summary
United States of America

BLACKBUTTE, OREGON


Home > North America > United States > Oregon
Elevation: 1070 feet     Latitude: 43 35N     Longitude: 123 04W

WEATHER
 
SELECT A DAY
Number of Records: 195,065;   Date Range: 1/2/95 - 8/12/14
 
SHARE

PRINT THIS DATA

[ ← Previous Day ]
WEATHER ALMANAC - FEBRUARY 13, 2013
[ Next Day → ]
[ °C ]   °F
Weather ElementAverageHighLow
Temperature48.4 °F54 °F (2:53 pm)44.1 °F (3:53 am)
Dewpoint43.2 °F44.6 °F (9:44 am)41 °F (6:20 am)
Humidity82.7 %96 % (3:53 am)66 % (2:53 pm)
Barometer30.49 in30.54 in (10:53 am)30.46 in (3:34 pm)
Wind Speed0.9 mph5.8 mph (5:31 am)
Weather ElementAverage
Visibility9.9 mi
Wind DirectionENE (65.3 °)

Weather ElementTotal
Precipitation---
Heating Degree Days16 (Base 65)
Averaged from 40 records on February 13, 2013
WEATHER CONDITIONS BREAKOUT
WIND DIRECTION BREAKOUT
WEATHER BY HOUR - FEBRUARY 13, 2013
[ °C ]   °F
Local TimeTemperatureDewpointHumidityBarometerVisibilityWind DirectionWind SpeedGust SpeedPrecipitationEventsConditions
1:53 AM45.0 °F43.0 °F93 %30.50 in10.0 miCalmOvercast
2:53 AM45.0 °F42.1 °F90 %30.50 in10.0 miNorth (360°)3.5 mphOvercast
3:53 AM44.1 °F43.0 °F96 %30.50 in8.0 miCalmOvercast
4:00 AM44.6 °F42.8 °F93 %30.49 in9.0 miCalmOvercast
4:53 AM45.0 °F43.0 °F93 %30.49 in10.0 miCalmOvercast
5:31 AM44.6 °F42.8 °F93 %30.49 in10.0 miNorth (360°)5.8 mphOvercast
5:53 AM44.1 °F42.1 °F93 %30.50 in10.0 miNorth (360°)4.6 mphOvercast
6:20 AM44.6 °F41.0 °F87 %30.48 in10.0 miCalmOvercast
6:40 AM44.6 °F42.8 °F93 %30.48 in9.0 miCalmOvercast
6:53 AM44.1 °F42.1 °F93 %30.50 in10.0 miCalmOvercast
7:27 AM44.6 °F42.8 °F93 %30.49 in10.0 miCalmOvercast
7:53 AM44.1 °F42.1 °F93 %30.51 in10.0 miCalmOvercast
8:53 AM46.0 °F42.1 °F86 %30.51 in10.0 miCalmOvercast
9:10 AM46.4 °F42.8 °F87 %30.50 in10.0 miCalmOvercast
9:44 AM48.2 °F44.6 °F87 %30.51 in10.0 miCalmOvercast
9:53 AM46.9 °F43.0 °F86 %30.53 in10.0 miCalmOvercast
10:46 AM48.2 °F42.8 °F82 %30.52 in10.0 miCalmOvercast
10:53 AM48.9 °F43.0 °F80 %30.54 in10.0 miCalmOvercast
11:48 AM50.0 °F42.8 °F76 %30.52 in10.0 miCalmOvercast
11:53 AM51.1 °F43.0 °F74 %30.53 in10.0 miCalmOvercast
12:02 PM51.8 °F44.6 °F76 %30.51 in10.0 miCalmOvercast
12:53 PM52.0 °F43.0 °F71 %30.51 in10.0 miCalmOvercast
1:06 PM51.8 °F42.8 °F71 %30.49 in10.0 miCalmOvercast
1:53 PM53.1 °F43.0 °F69 %30.48 in10.0 miCalmOvercast
2:53 PM54.0 °F43.0 °F66 %30.47 in10.0 miSW (230°)4.6 mphOvercast
3:34 PM53.6 °F42.8 °F67 %30.46 in10.0 miWNW (300°)3.5 mphOvercast
3:42 PM53.6 °F42.8 °F67 %30.46 in10.0 miCalmOvercast
3:53 PM53.1 °F43.0 °F69 %30.47 in10.0 miWest (260°)3.5 mphOvercast
4:53 PM54.0 °F43.0 °F66 %30.46 in10.0 miNorth (360°)3.5 mphOvercast
5:53 PM53.1 °F44.1 °F71 %30.46 in10.0 miCalmOvercast
6:53 PM51.1 °F44.1 °F77 %30.47 in10.0 miNNE (20°)3.5 mphScattered Clouds
7:18 PM50.0 °F44.6 °F82 %30.47 in10.0 miNorth (360°)3.5 mphMostly Cloudy
7:44 PM50.0 °F44.6 °F82 %30.47 in10.0 miCalmOvercast
7:53 PM50.0 °F44.1 °F80 %30.48 in10.0 miCalmOvercast
8:53 PM48.9 °F44.1 °F83 %30.48 in10.0 miCalmOvercast
9:53 PM48.9 °F44.1 °F83 %30.50 in10.0 miCalmOvercast
10:11 PM48.2 °F44.6 °F87 %30.48 in10.0 miCalmOvercast
10:48 PM46.4 °F44.6 °F93 %30.50 in9.0 miCalmMostly Cloudy
10:53 PM46.9 °F44.1 °F90 %30.51 in9.0 miCalmMostly Cloudy
11:53 PM46.9 °F44.1 °F90 %30.51 in10.0 miCalmOvercast
Hourly data recorded from KRBG, located miles away from Blackbutte, Oregon







STORIES FROM OUR PARTNERS